Wind_Speed
8 7 7 6 6 7 4 6 3 9 8 7 7 8 6 4 5 3 2 2 2 4 5 5 6 7 8 9 9 9 9 9 9 9 9 9 9 9 9 9 10 10 10 10 9 9 9 8 8
10 9 9 8 8 11 13 2 4 10 10 9 8 7 6 5 5 5 3 3 3 5 6 7 8 9 10 11 11 11 11 11 11 11 11 11 10 10 11 11 11 11 10 10 10 10 10 9 9
13 12 12 11 8 11 17 8 9 12 12 11 10 8 7 6 5 4 4 5 5 6 8 9 10 12 12 12 13 12 12 12 12 12 12 12 11 11 11 12 11 11 11 11 11 10 10 10 10
15 15 14 13 9 12 18 15 18 15 13 13 12 9 7 7 6 5 5 6 6 8 9 10 12 13 14 14 14 14 13 13 12 12 12 12 12 12 11 11 11 11 11 11 11 11 11 11 11
17 17 16 15 12 17 20 21 19 17 17 13 13 9 6 6 5 6 6 7 7 9 11 12 13 14 15 16 16 15 15 14 14 13 13 13 13 13 13 12 12 12 12 12 13 13 13 13 13
20 19 19 14 15 22 20 20 18 19 20 16 14 10 7 5 5 6 7 9 9 11 13 14 15 16 17 18 18 18 17 17 17 16 16 15 15 15 15 15 14 14 14 14 14 14 14 14 14
23 22 20 16 16 23 23 19 19 21 22 20 15 11 9 7 7 7 9 11 12 13 14 16 17 18 19 20 21 21 21 21 20 20 20 19 19 18 18 17 17 17 17 16 16 15 15 15 15
24 24 22 17 16 22 24 23 26 23 22 19 15 12 10 9 9 10 11 12 14 15 16 17 18 20 20 22 22 22 23 23 23 23 23 23 22 21 20 20 19 19 18 17 17 17 16 16 15
22 23 20 15 17 25 28 25 25 21 21 20 19 17 13 12 12 12 14 15 16 17 18 19 19 20 21 22 23 24 24 24 24 24 24 24 24 23 21 19 19 19 19 19 18 18 18 17 17
17 19 17 19 23 27 28 24 21 20 21 20 18 17 15 14 15 15 17 18 19 20 20 21 20 21 22 22 23 24 24 24 23 23 23 21 20 20 19 19 19 19 19 19 18 19 19 19 18
12 16 20 23 26 28 26 25 23 21 23 22 13 12 16 16 17 18 19 20 20 20 21 21 20 20 20 20 22 23 24 23 21 20 19 18 17 17 18 18 18 18 18 19 19 19 19 20 19
8 12 17 21 22 23 24 25 21 22 26 20 13 12 14 16 18 20 20 20 20 20 21 20 20 18 18 19 20 21 20 20 19 19 18 18 17 17 17 18 18 18 18 19 19 20 20 19 18
7 8 10 13 14 16 19 20 20 22 25 24 20 16 16 17 20 20 21 20 21 20 19 19 18 17 18 18 18 18 17 18 18 19 20 20 19 19 19 19 19 20 20 20 20 21 21 21 20
4 5 6 6 7 10 12 14 18 22 21 20 14 16 17 19 20 20 20 20 20 18 18 17 16 16 15 16 17 16 16 17 17 18 19 20 20 20 21 20 20 20 20 20 21 21 21 21 21
5 3 3 2 3 5 8 13 17 19 16 18 17 17 17 19 19 19 19 19 18 16 16 15 14 13 13 13 14 14 15 16 17 17 18 20 20 21 21 21 21 21 21 21 21 22 21 21 21
12 12 8 5 2 3 9 15 17 13 14 15 17 18 18 18 18 17 17 17 15 15 14 12 11 11 11 12 13 14 14 15 16 17 18 20 20 21 21 21 21 22 22 22 22 22 21 21 21
17 18 16 11 7 7 13 15 13 13 13 12 15 16 17 16 15 15 15 15 13 13 12 10 9 9 10 11 12 13 14 15 15 16 17 18 19 20 20 20 21 21 21 21 22 22 22 22 22
16 18 17 14 9 8 13 16 13 11 10 12 12 15 15 14 14 13 12 10 10 9 8 6 7 8 8 10 11 12 13 14 15 15 17 17 18 19 19 19 20 20 20 20 20 21 22 22 22
11 14 15 13 9 9 11 14 15 13 11 11 11 12 11 12 11 10 8 7 6 5 4 4 5 6 8 10 10 11 12 13 14 15 16 17 17 17 18 18 18 18 18 18 19 20 21 21 21
12 14 14 12 11 11 11 9 12 13 11 8 8 8 8 9 8 8 6 4 2 1 2 4 5 6 8 9 10 12 13 14 15 16 16 17 17 17 17 17 17 17 17 17 18 18 19 20 20
15 13 13 13 12 12 12 10 13 12 11 9 5 2 3 4 3 3 2 2 0 1 3 4 6 7 9 10 11 13 14 15 15 16 16 17 17 17 17 17 17 16 16 17 17 18 19 19 20
16 15 11 10 12 12 11 11 14 12 9 8 8 6 5 5 4 3 3 1 1 2 5 6 8 9 10 12 13 15 16 16 17 17 17 18 18 18 18 17 17 17 17 18 18 19 20 20 21
11 11 9 11 12 12 9 9 11 10 8 8 8 8 7 7 5 3 2 1 3 5 7 8 10 11 12 14 15 17 17 18 18 19 19 19 19 18 19 19 19 19 20 20 21 21 21 22 22
8 7 13 14 11 9 8 8 9 10 10 7 6 5 5 4 3 2 3 4 6 7 9 10 11 12 14 15 17 18 19 20 21 22 22 22 21 20 20 21 22 22 22 23 24 24 24 24 25
11 8 15 20 16 12 10 6 10 11 9 7 5 4 4 4 4 5 6 7 8 9 11 12 12 14 15 17 18 19 20 21 22 23 23 23 23 23 22 23 23 24 25 26 27 27 27 28 28
12 7 11 13 16 12 6 8 13 11 10 9 7 6 6 6 6 7 8 9 10 11 12 13 13 14 16 17 19 20 21 21 22 22 23 23 23 24 24 24 25 26 27 28 28 29 30 31 32
9 8 9 7 9 10 3 7 11 9 10 11 11 9 8 8 9 9 10 10 11 12 13 13 14 15 16 18 19 20 21 22 22 23 23 23 24 24 25 25 26 28 29 30 31 32 33 35 35
10 9 8 5 6 11 9 7 11 11 14 14 13 12 10 10 11 12 12 12 13 13 14 14 15 16 17 18 19 20 21 22 22 23 23 24 24 25 26 27 28 30 31 32 34 35 37 38 38
12 11 9 8 8 8 14 13 9 13 17 18 18 15 14 14 14 14 14 15 15 15 15 15 16 17 18 19 21 22 22 22 22 23 24 24 25 26 28 30 31 33 34 35 36 37 38 39 40
9 9 11 10 11 9 9 14 11 13 19 20 19 18 17 17 17 18 17 16 17 17 16 16 17 18 19 20 22 23 24 24 24 24 25 26 27 28 31 33 34 36 36 37 38 39 40 40 40
Wind_Direction
330 324 315 310 307 284 247 141 258 288 299 302 295 288 298 296 278 303 315 325 347 344 351 351 346 341 337 333 328 323 320 316 312 308 303 300 299 299 299 300 300 299 300 304 307 311 313 314 315
311 306 298 295 294 301 297 245 275 287 292 295 292 287 292 288 283 276 292 307 326 334 335 337 337 334 330 328 326 322 318 315 311 307 303 300 299 299 298 299 299 297 297 299 300 301 302 303 302
300 296 291 289 289 295 292 288 286 283 283 283 283 286 291 289 285 282 292 307 324 328 329 331 330 328 327 325 323 319 317 315 312 307 302 298 296 296 295 294 294 294 295 297 298 298 297 296 293
291 289 283 279 274 267 271 269 275 279 277 275 274 275 285 289 289 294 299 314 322 323 325 326 325 324 321 319 318 316 314 313 311 307 303 298 295 292 289 289 289 290 290 290 292 292 293 292 289
282 280 278 278 271 259 256 261 266 267 263 249 257 258 278 289 296 308 313 318 325 327 324 322 320 317 314 312 311 309 309 307 305 302 299 296 292 290 288 286 283 283 283 283 284 286 288 289 288
274 271 271 273 273 263 256 258 261 256 252 254 256 256 266 281 299 315 317 316 323 324 319 317 313 309 306 305 305 305 303 301 298 295 293 290 286 285 284 281 278 277 277 278 279 281 283 286 286
268 266 265 262 262 269 266 259 256 247 244 245 244 246 259 270 289 305 311 313 318 317 312 309 304 300 298 297 297 298 297 295 293 290 289 286 280 278 278 275 274 274 273 273 273 275 279 282 282
264 261 260 257 255 262 261 259 259 249 242 243 253 254 256 269 282 295 303 310 313 314 309 306 302 297 293 291 291 292 292 291 288 286 285 282 279 276 274 272 271 270 268 268 269 270 273 278 279
262 255 254 251 247 247 250 251 256 257 261 262 260 260 263 271 282 292 299 304 306 306 305 305 301 296 292 290 290 290 290 291 288 284 284 281 278 277 275 276 275 272 266 266 268 269 270 273 275
258 245 243 238 234 237 244 253 259 260 261 255 248 250 264 273 281 287 293 298 302 303 304 304 299 294 290 288 288 287 289 290 287 286 288 289 284 283 280 283 282 279 271 267 269 270 270 272 271
258 240 237 238 239 241 250 260 261 252 250 247 246 248 262 273 280 285 290 294 299 301 303 303 302 298 293 291 292 291 291 288 289 292 292 293 291 289 285 287 287 286 281 274 272 273 272 272 270
286 251 248 247 249 250 252 259 259 258 257 256 266 265 264 275 279 285 291 293 299 301 302 302 301 298 294 294 295 294 291 287 290 291 293 293 294 292 288 285 286 287 288 285 281 281 279 277 274
336 298 274 265 256 254 251 252 253 259 264 272 273 266 272 278 283 286 291 294 299 301 300 299 298 296 297 296 296 295 292 293 294 291 290 292 293 290 287 286 285 285 286 286 283 281 281 281 280
347 319 300 286 269 263 261 255 254 256 259 269 267 271 271 276 279 283 288 291 295 295 295 295 296 296 298 300 303 300 298 297 296 296 294 294 294 292 291 289 287 286 284 282 281 281 281 281 281
356 312 297 312 303 296 278 256 252 247 255 259 263 266 269 273 276 280 284 289 294 294 295 295 298 296 300 304 307 307 305 301 302 303 300 298 297 294 292 291 289 287 284 284 283 282 282 281 280
356 333 325 354 317 270 282 267 262 252 254 258 263 266 268 269 274 278 281 287 289 288 292 298 299 300 304 309 311 311 310 308 307 306 303 301 300 297 295 293 292 289 287 286 284 284 284 281 279
349 338 334 344 0 324 292 289 277 267 262 259 259 262 264 267 272 274 279 282 282 284 290 297 303 309 313 313 315 314 313 312 312 311 308 306 303 300 298 296 293 290 288 286 284 283 282 280 279
337 323 321 332 357 336 303 309 318 304 274 277 270 266 260 263 268 269 275 277 278 284 294 303 312 317 322 324 324 323 321 318 317 316 315 314 310 305 302 299 295 293 292 288 285 283 282 281 280
313 302 313 325 347 341 326 322 338 336 320 301 278 266 258 259 259 259 257 269 279 282 302 315 319 326 331 332 333 332 330 328 326 325 323 321 317 314 311 307 302 298 296 292 289 286 285 283 281
299 304 324 345 349 342 329 339 346 344 348 328 289 261 254 248 239 237 239 250 259 296 339 338 335 337 341 342 342 341 340 340 338 335 332 329 325 322 319 315 312 307 303 298 294 292 289 286 284
312 326 338 343 344 340 335 355 12 6 18 25 37 91 175 187 191 192 190 201 209 14 357 348 347 347 349 349 347 344 342 340 338 335 332 329 326 324 320 317 315 312 309 305 301 298 294 291 289
318 326 331 320 311 307 329 357 9 16 29 43 55 82 108 110 112 127 129 125 50 8 0 357 356 354 352 349 346 343 340 337 334 332 330 327 324 321 318 315 314 312 310 308 305 301 297 295 293
305 315 306 291 282 291 321 6 6 25 34 50 60 74 86 92 99 107 105 23 355 356 356 354 351 351 349 346 343 339 335 332 330 328 325 323 320 317 314 311 310 309 308 307 306 303 300 297 294
311 315 313 313 298 314 5 14 358 8 17 26 38 52 60 66 62 38 6 351 347 349 350 350 348 346 344 341 338 334 330 329 327 325 324 321 319 316 312 308 307 306 304 304 304 303 301 299 296
318 324 324 333 347 7 21 4 344 353 356 1 357 359 3 359 358 354 347 343 343 344 344 345 344 341 339 336 333 330 327 326 324 323 322 320 318 315 312 309 307 306 304 303 302 301 300 299 297
315 324 322 333 339 344 7 336 332 341 342 339 335 333 333 334 334 334 335 337 338 339 340 340 339 336 333 332 330 328 326 324 323 321 320 319 318 317 315 312 310 308 307 304 302 300 299 298 297
302 291 301 318 321 308 284 314 315 331 335 331 326 322 322 323 323 326 329 332 334 333 333 333 331 331 330 329 328 326 325 324 322 321 320 320 319 318 316 313 311 310 308 306 303 301 299 297 295
312 304 290 282 317 323 316 281 288 323 326 327 323 318 318 318 320 323 327 328 329 328 327 326 325 324 325 324 323 322 321 320 319 319 320 320 320 320 320 318 316 315 312 309 305 302 300 298 295
297 307 298 276 253 275 313 321 314 323 322 323 323 319 319 319 319 319 322 322 322 320 318 316 316 317 318 319 320 320 320 319 318 318 319 319 320 320 320 319 319 317 315 312 309 307 304 301 297
262 266 278 282 266 252 286 301 296 308 313 316 316 313 313 314 314 313 313 313 312 311 309 308 308 311 313 315 316 317 316 316 317 317 318 319 319 320 321 321 320 319 318 315 313 310 308 304 300
Height
5919 5919 5918 5918 5918 5916 5910 5908 5912 5911 5911 5912 5911 5909 5907 5907 5909 5911 5910 5908 5909 5909 5909 5909 5909 5910 5910 5910 5910 5910 5910 5909 5909 5909 5908 5907 5907 5906 5906 5905 5904 5904 5903 5903 5902 5902 5901 5901 5901
5918 5918 5918 5918 5917 5914 5908 5903 5908 5911 5911 5911 5910 5909 5909 5909 5909 5909 5908 5908 5909 5909 5909 5909 5909 5909 5909 5909 5909 5909 5909 5908 5908 5907 5907 5906 5906 5905 5905 5904 5903 5903 5902 5901 5901 5900 5900 5900 5899
5916 5916 5916 5916 5916 5914 5910 5907 5908 5910 5910 5909 5908 5909 5909 5908 5908 5908 5908 5908 5909 5909 5908 5908 5908 5908 5908 5908 5908 5908 5907 5907 5906 5906 5905 5905 5904 5904 5903 5903 5902 5901 5901 5900 5899 5899 5898 5898 5898
5914 5914 5914 5915 5915 5914 5911 5909 5908 5909 5907 5907 5906 5906 5906 5906 5907 5907 5907 5907 5908 5908 5908 5908 5908 5908 5907 5907 5907 5907 5906 5906 5905 5904 5904 5903 5902 5902 5901 5901 5900 5900 5899 5898 5898 5897 5897 5897 5896
5911 5911 5911 5911 5912 5911 5908 5906 5905 5906 5904 5902 5902 5902 5903 5905 5906 5906 5905 5906 5907 5907 5907 5907 5907 5907 5906 5906 5905 5905 5904 5904 5903 5902 5902 5901 5900 5900 5899 5899 5898 5897 5897 5896 5896 5895 5895 5895 5895
5907 5908 5908 5908 5909 5906 5902 5903 5904 5902 5901 5896 5897 5899 5901 5903 5904 5904 5904 5904 5905 5905 5905 5905 5905 5904 5904 5904 5903 5903 5902 5901 5901 5900 5899 5899 5898 5897 5897 5896 5895 5895 5894 5894 5893 5893 5892 5892 5892
5903 5902 5903 5905 5906 5903 5899 5898 5898 5895 5893 5894 5892 5895 5897 5900 5902 5902 5902 5902 5903 5903 5903 5903 5902 5902 5901 5901 5900 5900 5899 5898 5897 5897 5896 5895 5895 5894 5893 5893 5892 5892 5892 5891 5891 5890 5890 5890 5889
5896 5898 5898 5901 5903 5900 5896 5895 5893 5889 5884 5886 5887 5892 5895 5897 5899 5899 5900 5900 5900 5900 5900 5900 5899 5898 5898 5897 5897 5896 5895 5894 5893 5892 5891 5891 5890 5890 5889 5889 5888 5888 5888 5888 5888 5887 5887 5887 5887
5890 5893 5894 5897 5897 5894 5890 5889 5889 5886 5885 5884 5884 5889 5892 5895 5896 5896 5897 5897 5897 5897 5897 5896 5896 5895 5894 5894 5892 5891 5890 5889 5888 5887 5886 5886 5886 5885 5884 5884 5884 5884 5884 5885 5885 5884 5884 5884 5883
5886 5887 5890 5890 5888 5886 5885 5885 5887 5885 5882 5877 5875 5883 5888 5891 5892 5893 5893 5893 5893 5893 5892 5892 5892 5891 5890 5889 5888 5886 5885 5884 5883 5882 5882 5881 5880 5880 5880 5880 5880 5880 5880 5881 5881 5880 5880 5880 5880
5881 5883 5883 5882 5882 5882 5882 5883 5884 5880 5875 5868 5867 5875 5884 5887 5888 5889 5889 5889 5889 5889 5889 5888 5887 5886 5885 5884 5883 5881 5881 5880 5879 5878 5877 5877 5877 5876 5876 5876 5876 5876 5876 5876 5876 5876 5876 5876 5876
5879 5878 5878 5878 5878 5880 5880 5880 5880 5876 5873 5867 5869 5875 5880 5883 5884 5885 5885 5885 5885 5885 5885 5884 5883 5882 5881 5880 5879 5877 5876 5876 5876 5875 5874 5874 5873 5873 5873 5872 5872 5872 5872 5872 5872 5872 5871 5871 5871
5877 5877 5875 5875 5874 5875 5876 5877 5876 5872 5869 5870 5874 5877 5877 5879 5880 5880 5881 5881 5881 5881 5881 5880 5879 5879 5878 5876 5875 5874 5873 5873 5873 5872 5871 5870 5870 5869 5869 5868 5868 5868 5867 5867 5867 5867 5867 5867 5867
5877 5876 5875 5874 5874 5873 5874 5874 5874 5870 5866 5867 5868 5872 5875 5875 5876 5877 5877 5877 5877 5877 5877 5876 5876 5875 5874 5873 5872 5871 5870 5870 5868 5868 5867 5866 5865 5865 5864 5864 5864 5863 5863 5863 5862 5862 5862 5862 5862
5876 5874 5873 5872 5871 5871 5871 5871 5868 5865 5864 5864 5866 5868 5870 5872 5873 5873 5873 5873 5874 5874 5873 5873 5873 5872 5872 5871 5870 5869 5868 5867 5865 5865 5864 5862 5861 5860 5859 5859 5859 5859 5858 5858 5857 5857 5857 5857 5857
5876 5873 5871 5870 5868 5867 5869 5867 5863 5862 5862 5862 5864 5866 5867 5867 5869 5870 5870 5871 5871 5871 5871 5871 5871 5870 5869 5868 5867 5866 5865 5864 5863 5861 5860 5858 5857 5856 5855 5855 5854 5853 5853 5853 5852 5852 5852 5852 5852
5877 5873 5870 5869 5868 5868 5866 5864 5863 5862 5861 5859 5860 5863 5863 5863 5865 5866 5867 5868 5868 5869 5869 5869 5869 5868 5867 5866 5865 5864 5863 5861 5860 5858 5857 5855 5854 5852 5851 5850 5849 5848 5848 5848 5847 5847 5847 5847 5847
5879 5876 5872 5871 5869 5869 5866 5863 5860 5857 5856 5855 5856 5858 5859 5861 5862 5863 5865 5865 5866 5867 5867 5867 5867 5866 5866 5865 5864 5862 5861 5859 5858 5856 5854 5852 5850 5849 5847 5846 5845 5844 5844 5843 5843 5842 5842 5842 5842
5881 5876 5874 5872 5871 5869 5866 5862 5859 5856 5854 5852 5854 5855 5856 5857 5859 5861 5863 5864 5865 5866 5866 5866 5865 5865 5864 5863 5862 5860 5859 5857 5856 5854 5852 5850 5848 5846 5844 5843 5842 5840 5840 5839 5838 5837 5837 5836 5836
5880 5876 5874 5873 5871 5869 5865 5860 5858 5857 5854 5852 5851 5852 5853 5855 5857 5859 5862 5864 5864 5865 5865 5865 5864 5864 5863 5861 5860 5858 5857 5855 5853 5851 5849 5847 5845 5843 5842 5840 5839 5837 5836 5835 5834 5833 5832 5831 5831
5879 5876 5875 5872 5871 5868 5865 5860 5858 5858 5855 5853 5850 5851 5853 5855 5857 5859 5861 5863 5864 5864 5864 5864 5863 5862 5861 5860 5858 5857 5855 5853 5852 5850 5848 5846 5843 5841 5839 5837 5836 5834 5833 5831 5830 5829 5828 5827 5826
5879 5877 5875 5873 5871 5868 5865 5861 5860 5858 5857 5856 5854 5854 5855 5856 5858 5860 5861 5862 5863 5863 5863 5862 5861 5860 5859 5857 5856 5855 5853 5852 5850 5848 5846 5844 5841 5839 5837 5835 5833 5831 5830 5828 5826 5825 5824 5822 5821
5879 5877 5874 5871 5868 5865 5862 5862 5862 5860 5859 5858 5858 5858 5858 5859 5860 5861 5861 5862 5862 5862 5861 5860 5859 5858 5857 5855 5854 5852 5851 5849 5847 5845 5843 5841 5839 5837 5834 5832 5830 5828 5826 5824 5822 5821 5819 5818 5816
5876 5875 5872 5869 5865 5862 5862 5863 5863 5862 5861 5861 5861 5860 5860 5860 5860 5860 5860 5861 5860 5860 5859 5858 5857 5856 5855 5853 5852 5850 5848 5846 5844 5842 5839 5837 5835 5833 5831 5829 5826 5824 5822 5820 5818 5816 5814 5812 5810
5875 5874 5872 5867 5862 5861 5863 5863 5864 5863 5863 5862 5862 5861 5861 5860 5860 5860 5860 5859 5859 5858 5857 5856 5855 5854 5852 5851 5849 5847 5845 5843 5841 5838 5836 5833 5831 5829 5826 5824 5822 5819 5817 5815 5812 5810 5808 5805 5803
5874 5874 5873 5872 5868 5865 5864 5864 5864 5863 5863 5862 5862 5861 5861 5860 5860 5859 5858 5858 5857 5856 5854 5853 5852 5851 5850 5848 5847 5845 5842 5840 5838 5835 5832 5830 5827 5824 5821 5819 5816 5813 5811 5808 5806 5803 5801 5798 5796
5873 5872 5872 5871 5870 5867 5864 5863 5861 5862 5862 5862 5861 5860 5859 5859 5858 5857 5856 5855 5854 5853 5852 5851 5850 5849 5847 5846 5844 5842 5839 5837 5834 5831 5828 5825 5822 5819 5816 5814 5811 5808 5805 5802 5799 5796 5793 5790 5787
5871 5870 5870 5869 5868 5866 5863 5862 5860 5860 5861 5860 5860 5859 5858 5857 5856 5855 5854 5853 5852 5851 5850 5849 5848 5846 5845 5843 5841 5839 5837 5834 5831 5827 5824 5821 5817 5814 5811 5807 5804 5801 5798 5794 5791 5787 5784 5780 5777
5869 5869 5867 5867 5866 5866 5863 5861 5857 5859 5859 5858 5857 5856 5855 5854 5853 5852 5851 5850 5849 5848 5848 5846 5845 5844 5842 5840 5838 5835 5833 5830 5827 5824 5820 5816 5813 5809 5805 5801 5798 5794 5790 5786 5781 5777 5773 5770 5766
5865 5866 5866 5866 5865 5865 5865 5864 5859 5858 5858 5857 5856 5854 5853 5852 5851 5849 5849 5848 5847 5846 5845 5844 5842 5840 5839 5836 5834 5831 5828 5825 5822 5819 5815 5811 5808 5804 5800 5795 5791 5786 5781 5777 5772 5767 5763 5758 5754